Weather History for Wheaton NDB, MN

Change the Weather History Date:

Wednesday, October 23, 2013

  Actual Average Record
Temperature  
Mean Temperature 38 °F -  
Max Temperature 42 °F 59 °F 81 °F (1963)
Min Temperature 33 °F 33 °F 20 °F (1964)
Degree Days  
Heating Degree Days 28    
Moisture  
Dew Point 29 °F    
Average Humidity 73    
Maximum Humidity 93    
Minimum Humidity 49    
Precipitation  
Precipitation 0.00 in - - ()
Sea Level Pressure  
Sea Level Pressure 30.11 in    
Wind  
Wind Speed 7 mph (NW)    
Max Wind Speed 20 mph    
Max Gust Speed 25 mph    
Visibility 10 miles    
Events Rain , Snow    
Averages and records for this station are not official NWS values.
T = Trace of Precipitation, MM = Missing Value Source: NWS Daily Summary

Daily Weather History Graph

Daily Weather History Graph

Search for Another Location

Airport:

Trip Planner

Search our weather history database for the weather conditions in past years. The results will help you decide how hot, cold, wet, or windy it might be!

Date:

Astronomy

Oct. 23, 2013 Rise Set
Actual Time 7:54 AM CDT 6:26 PM CDT
Civil Twilight 7:23 AM CDT 6:56 PM CDT
Nautical Twilight 6:48 AM CDT 7:31 PM CDT
Astronomical Twilight 6:14 AM CDT 8:05 PM CDT
Moon 9:50 PM CDT (10/23) 12:19 PM CDT (10/23)
Length of Visible Light 11h 32m
Length of Day
10h 32m
Waning Gibbous, 79% of the Moon is Illuminated
Oct 23
Waning Gibbous
Oct 26
Last Quarter
Nov 3
New
Nov 9
First Quarter
Nov 17
Full

Hourly Weather History & Observations

Time (CDT) Temp. Windchill Dew Point Humidity Pressure Visibility Wind Dir Wind Speed Gust Speed Precip Events Conditions
12:15 AM 35.6 °F 31.7 °F 30.2 °F 81% 30.07 in 10.0 mi West 4.6 mph - N/A   Scattered Clouds
12:35 AM 33.8 °F 29.6 °F 30.2 °F 87% 30.06 in 10.0 mi West 4.6 mph - N/A   Clear
12:55 AM 33.8 °F - 30.2 °F 87% 30.06 in 10.0 mi Calm Calm - N/A   Clear
1:14 AM 33.8 °F 29.6 °F 30.2 °F 87% 30.06 in 10.0 mi WSW 4.6 mph - N/A   Scattered Clouds
1:35 AM 33.8 °F 29.6 °F 30.2 °F 87% 30.06 in 10.0 mi WSW 4.6 mph - N/A   Overcast
1:55 AM 33.8 °F 30.8 °F 30.2 °F 87% 30.06 in 10.0 mi West 3.5 mph - N/A   Mostly Cloudy
2:15 AM 33.8 °F 29.6 °F 30.2 °F 87% 30.06 in 10.0 mi WSW 4.6 mph - N/A   Mostly Cloudy
2:35 AM 33.8 °F 28.6 °F 30.2 °F 87% 30.06 in 10.0 mi WNW 5.8 mph - N/A   Overcast
2:55 AM 33.8 °F 30.8 °F 32.0 °F 93% 30.06 in 10.0 mi WNW 3.5 mph - N/A   Overcast
3:15 AM 35.6 °F 31.7 °F 32.0 °F 87% 30.06 in 10.0 mi WNW 4.6 mph - N/A   Overcast
3:35 AM 35.6 °F 31.7 °F 32.0 °F 87% 30.06 in 10.0 mi WNW 4.6 mph - N/A   Overcast
3:54 AM 35.6 °F 31.7 °F 32.0 °F 87% 30.06 in 10.0 mi West 4.6 mph - N/A   Overcast
4:15 AM 35.6 °F 32.8 °F 32.0 °F 87% 30.06 in 10.0 mi WNW 3.5 mph - N/A   Overcast
4:34 AM 35.6 °F 32.8 °F 32.0 °F 87% 30.06 in 10.0 mi WNW 3.5 mph - N/A   Overcast
4:55 AM 35.6 °F 32.8 °F 32.0 °F 87% 30.06 in 10.0 mi WNW 3.5 mph - N/A   Overcast
5:15 AM 35.6 °F 31.7 °F 32.0 °F 87% 30.06 in 10.0 mi WNW 4.6 mph - N/A   Overcast
5:34 AM 35.6 °F 32.8 °F 30.2 °F 81% 30.05 in 10.0 mi NNW 3.5 mph - N/A   Overcast
5:54 AM 33.8 °F 29.6 °F 30.2 °F 87% 30.06 in 10.0 mi NNW 4.6 mph - N/A   Overcast
6:15 AM 33.8 °F 30.8 °F 30.2 °F 87% 30.06 in 10.0 mi WNW 3.5 mph - N/A   Overcast
6:34 AM 33.8 °F 30.8 °F 30.2 °F 87% 30.06 in 10.0 mi WNW 3.5 mph - N/A   Overcast
6:55 AM 33.8 °F 30.8 °F 30.2 °F 87% 30.07 in 10.0 mi WNW 3.5 mph - N/A   Overcast
7:14 AM 35.6 °F 32.8 °F 30.2 °F 81% 30.07 in 10.0 mi WNW 3.5 mph - N/A   Overcast
7:34 AM 35.6 °F 32.8 °F 30.2 °F 81% 30.07 in 10.0 mi WNW 3.5 mph - N/A   Overcast
7:54 AM 35.6 °F 30.7 °F 30.2 °F 81% 30.07 in 10.0 mi West 5.8 mph - N/A   Overcast
8:14 AM 35.6 °F 31.7 °F 30.2 °F 81% 30.08 in 10.0 mi WNW 4.6 mph - N/A   Overcast
8:35 AM 35.6 °F 29.9 °F 28.4 °F 75% 30.09 in 10.0 mi NW 6.9 mph - N/A   Overcast
8:55 AM 35.6 °F 29.9 °F 28.4 °F 75% 30.09 in 10.0 mi NW 6.9 mph - N/A   Overcast
9:14 AM 35.6 °F 29.9 °F 28.4 °F 75% 30.10 in 10.0 mi NW 6.9 mph - N/A   Overcast
9:35 AM 35.6 °F 29.9 °F 28.4 °F 75% 30.10 in 10.0 mi NW 6.9 mph - N/A   Overcast
9:55 AM 35.6 °F 29.9 °F 28.4 °F 75% 30.11 in 10.0 mi NW 6.9 mph - N/A   Overcast
10:15 AM 35.6 °F 29.2 °F 28.4 °F 75% 30.11 in 10.0 mi NNW 8.1 mph - N/A   Overcast
10:35 AM 35.6 °F 29.2 °F 26.6 °F 70% 30.11 in 10.0 mi NW 8.1 mph - N/A   Overcast
10:55 AM 37.4 °F 30.8 °F 26.6 °F 65% 30.12 in 10.0 mi NW 9.2 mph - N/A   Overcast
11:15 AM 37.4 °F 30.3 °F 24.8 °F 60% 30.11 in 10.0 mi NW 10.4 mph - N/A   Overcast
11:34 AM 37.4 °F 30.3 °F 24.8 °F 60% 30.12 in 10.0 mi NW 10.4 mph - N/A   Overcast
11:55 AM 39.2 °F 31.2 °F 24.8 °F 56% 30.12 in 10.0 mi NNW 13.8 mph 20.7 mph N/A   Mostly Cloudy
12:15 PM 39.2 °F 31.2 °F 24.8 °F 56% 30.12 in 10.0 mi NNW 13.8 mph 18.4 mph N/A   Mostly Cloudy
12:35 PM 41.0 °F 33.9 °F 26.6 °F 57% 30.12 in 10.0 mi NW 12.7 mph 21.9 mph N/A   Mostly Cloudy
12:55 PM 39.2 °F 30.8 °F 24.8 °F 56% 30.12 in 10.0 mi NW 15.0 mph 19.6 mph N/A   Scattered Clouds
1:15 PM 39.2 °F 29.8 °F 24.8 °F 56% 30.12 in 10.0 mi NW 18.4 mph 24.2 mph N/A   Mostly Cloudy
1:35 PM 42.8 °F 35.4 °F 24.8 °F 49% 30.11 in 10.0 mi NW 15.0 mph 23.0 mph N/A   Mostly Cloudy
1:54 PM 42.8 °F 35.1 °F 26.6 °F 53% 30.11 in 10.0 mi NW 16.1 mph 19.6 mph N/A   Mostly Cloudy
2:15 PM 42.8 °F 36.6 °F 24.8 °F 49% 30.11 in 10.0 mi NNW 11.5 mph 23.0 mph N/A   Scattered Clouds
2:35 PM 42.8 °F 34.3 °F 24.8 °F 49% 30.10 in 10.0 mi NW 19.6 mph 23.0 mph N/A   Mostly Cloudy
2:55 PM 42.8 °F 34.8 °F 26.6 °F 53% 30.11 in 10.0 mi NNW 17.3 mph 23.0 mph N/A   Mostly Cloudy
3:15 PM 42.8 °F 35.8 °F 26.6 °F 53% 30.11 in 10.0 mi NNW 13.8 mph 25.3 mph N/A   Overcast
3:35 PM 42.8 °F 35.1 °F 26.6 °F 53% 30.11 in 10.0 mi NNW 16.1 mph 23.0 mph N/A   Overcast
3:54 PM 42.8 °F 34.8 °F 24.8 °F 49% 30.12 in 10.0 mi NNW 17.3 mph - N/A   Overcast
4:14 PM 42.8 °F 35.1 °F 26.6 °F 53% 30.12 in 10.0 mi NW 16.1 mph 20.7 mph N/A   Overcast
4:34 PM 42.8 °F 35.8 °F 26.6 °F 53% 30.13 in 10.0 mi NNW 13.8 mph 20.7 mph N/A   Overcast
4:55 PM 42.8 °F 37.0 °F 26.6 °F 53% 30.13 in 10.0 mi NW 10.4 mph 18.4 mph N/A   Overcast
5:15 PM 41.0 °F 34.3 °F 26.6 °F 57% 30.13 in 10.0 mi NNW 11.5 mph - N/A   Overcast
5:34 PM 41.0 °F 32.8 °F 26.6 °F 57% 30.13 in 10.0 mi NW 16.1 mph 19.6 mph N/A   Overcast
5:54 PM 41.0 °F 34.7 °F 26.6 °F 57% 30.13 in 10.0 mi NW 10.4 mph 18.4 mph N/A   Overcast
6:15 PM 39.2 °F 33.0 °F 28.4 °F 65% 30.14 in 10.0 mi NW 9.2 mph - N/A   Overcast
6:34 PM 39.2 °F 33.0 °F 28.4 °F 65% 30.14 in 10.0 mi NW 9.2 mph - N/A   Overcast
6:55 PM 39.2 °F 32.0 °F 28.4 °F 65% 30.15 in 10.0 mi NW 11.5 mph - N/A Rain Light Rain
7:14 PM 39.2 °F 32.0 °F 28.4 °F 65% 30.15 in 10.0 mi NW 11.5 mph - N/A   Overcast
7:35 PM 39.2 °F 33.0 °F 30.2 °F 70% 30.16 in 10.0 mi WNW 9.2 mph - N/A   Overcast
7:54 PM 39.2 °F 32.5 °F 30.2 °F 70% 30.16 in 10.0 mi NW 10.4 mph - N/A   Overcast
8:14 PM 37.4 °F 32.1 °F 30.2 °F 75% 30.17 in 10.0 mi WNW 6.9 mph - N/A   Overcast
8:34 PM 37.4 °F 32.8 °F 30.2 °F 75% 30.16 in 10.0 mi WNW 5.8 mph - N/A   Overcast
8:55 PM 37.4 °F 31.4 °F 30.2 °F 75% 30.16 in 10.0 mi WNW 8.1 mph - N/A   Overcast
9:15 PM 37.4 °F 32.1 °F 30.2 °F 75% 30.18 in 10.0 mi NW 6.9 mph - N/A   Scattered Clouds
9:35 PM 35.6 °F 30.7 °F 32.0 °F 87% 30.18 in 10.0 mi NW 5.8 mph - N/A   Mostly Cloudy
9:55 PM 33.8 °F 30.8 °F 30.2 °F 87% 30.18 in 10.0 mi WNW 3.5 mph - N/A   Overcast
10:15 PM 35.6 °F 32.8 °F 30.2 °F 81% 30.18 in 10.0 mi WNW 3.5 mph - N/A   Overcast
10:35 PM 35.6 °F 30.7 °F 32.0 °F 87% 30.18 in 10.0 mi WNW 5.8 mph - N/A   Overcast
10:55 PM 37.4 °F 31.4 °F 33.8 °F 87% 30.19 in 5.0 mi WNW 8.1 mph - N/A Snow Light Snow
11:15 PM 35.6 °F 31.7 °F 33.8 °F 93% 30.19 in 10.0 mi WNW 4.6 mph - N/A Snow Light Snow
11:35 PM 35.6 °F 31.7 °F 33.8 °F 93% 30.19 in 10.0 mi WNW 4.6 mph - N/A   Overcast
11:54 PM 35.6 °F 30.7 °F 33.8 °F 93% 30.19 in 10.0 mi WNW 5.8 mph - N/A   Overcast